Flag for Germany Weather past 2 weeks in Lohne (Oldenburg), Lower Saxony, Germany

Now
68 °F

Passing clouds.


Feels Like: 68 °F
Forecast: 57 / 65 °F
Wind: 15 mph from West

Location: Bremen Airport

Current Time: Jul 8, 2015 at 12:24:53 AM

Latest Report: Jul 7, 2015 at 11:20 PM


Visibility: N/A

Pressure: 29.65 "Hg

Humidity: 73%

Dew point: 59 °F

Location of Lohne (Oldenburg)Location

Historic Weather in Lohne (Oldenburg) — Graph

°F

Lohne (Oldenburg) temperature yesterday

Maximum temperature yesterday: 82 °F (at 12:50 PM)
Minimum temperature yesterday: 55 °F (at 4:50 AM)
Average temperature yesterday: 69 °F

Past Weeks' High & Low Weather Summary

 TemperatureHumidityPressure
High97 °F (Jul 4, 3:20 PM)100% (Jun 22, 10:20 PM)30.27 "Hg (Jun 22, 10:20 PM)
Low46 °F (Jun 28, 5:50 AM)30% (Jul 2, 3:20 PM)29.62 "Hg (Jul 7, 8:20 PM)
Average68 °F69%30.06 "Hg
* Reported Jun 22 10:20 PM — Jul 7 10:20 PM, Lohne (Oldenburg), Weather by CustomWeather, © 2015

Note: Actual official high and low records may vary slightly from our data, if they occured in-between our weather recording intervals... More about our weather records

Advertising

Lohne (Oldenburg) weather history for previous 24 hours

 ConditionsComfort  
Time TempWeatherWind HumidityBarometerVisibility
10:20 PM
Tue, Jul 7
66 °FSunny.9 mph83%29.65 "Hg10 mi
9:50 PM66 °FSunny.7 mph88%29.65 "Hg10 mi
9:20 PM68 °FScattered clouds.6 mph88%29.65 "HgN/A
8:50 PM73 °FThunderstorms. Broken clouds.5 mph69%29.62 "HgN/A
8:20 PM72 °FSunny.2 mph88%29.62 "Hg10 mi
7:50 PM73 °FSunny.No wind78%29.65 "Hg10 mi
7:20 PM75 °FSunny.3 mph65%29.65 "Hg10 mi
6:50 PM77 °FSunny.2 mph54%29.65 "Hg10 mi
6:20 PM79 °FSunny.1 mph42%29.68 "Hg10 mi
5:50 PM79 °FSunny.1 mph45%29.68 "Hg10 mi
5:20 PM79 °FPassing clouds.3 mph48%29.71 "HgN/A
4:50 PM73 °FSprinkles. Partly sunny.5 mph65%29.74 "HgN/A
4:20 PM73 °FSprinkles. Broken clouds.9 mph57%29.74 "HgN/A
3:50 PM81 °FPassing clouds.5 mph42%29.74 "HgN/A
3:20 PM81 °FPassing clouds.6 mph39%29.77 "HgN/A
2:50 PM81 °FSunny.8 mph34%29.77 "Hg10 mi
2:20 PM81 °FSunny.13 mph32%29.80 "Hg10 mi
1:50 PM81 °FPassing clouds.12 mph39%29.80 "HgN/A
1:20 PM82 °FPassing clouds.10 mph40%29.80 "HgN/A
12:50 PM82 °FBroken clouds.8 mph37%29.83 "HgN/A
12:20 PM79 °FScattered clouds.5 mph42%29.83 "HgN/A
11:50 AM77 °FPartly sunny.8 mph39%29.83 "HgN/A
11:20 AM79 °FScattered clouds.10 mph39%29.86 "HgN/A
10:50 AM77 °FPassing clouds.9 mph39%29.89 "HgN/A
10:20 AM75 °FPassing clouds.7 mph47%29.89 "HgN/A
9:50 AM75 °FPassing clouds.6 mph50%29.89 "HgN/A
9:20 AM73 °FPassing clouds.7 mph57%29.92 "HgN/A
8:50 AM68 °FPassing clouds.5 mph69%29.92 "HgN/A
8:20 AM66 °FSunny.6 mph68%29.95 "Hg10 mi
7:50 AM63 °FSunny.5 mph77%29.95 "Hg10 mi
7:20 AM61 °FSunny.6 mph83%29.95 "Hg10 mi
6:50 AM59 °FPassing clouds.3 mph88%29.95 "HgN/A
6:20 AM57 °FSunny.5 mph94%29.98 "Hg10 mi
5:50 AM57 °FClear.5 mph94%29.98 "Hg10 mi
5:20 AM57 °FClear.5 mph94%29.98 "Hg10 mi
4:50 AM55 °FFog.5 mph100%29.98 "HgN/A
4:20 AM57 °FFog.2 mph94%30.01 "HgN/A
3:50 AM57 °FFog.3 mph94%30.01 "HgN/A
3:20 AM57 °FFog.3 mph94%30.01 "HgN/A
2:50 AM59 °FFog.1 mph94%30.04 "HgN/A
2:20 AM57 °FFog.1 mph94%30.04 "HgN/A
1:50 AM59 °FClear.No wind88%30.04 "Hg10 mi
1:20 AM59 °FClear.2 mph88%30.04 "Hg10 mi
12:50 AM61 °FClear.3 mph88%30.04 "Hg10 mi
12:20 AM59 °FClear.5 mph88%30.04 "Hg10 mi
Weather by CustomWeather, © 2015

See weather overviewHow to use our weather pages